Location: *
(51.5000°N, 0.1100°W)
Time: 20:53:07
(UTC+00:00)

Cosmos 1758 - Pass Details

Date: 25 May 2024
Orbit: 512 x 538 km, 82.5° (Epoch: 23 June)

Event Time Altitude Azimuth Distance (km) Brightness Sun altitude
Rises 00:50:58 0° 341° (NNW) 2,641 7.8 -16.5°
Reaches altitude 10° 00:53:14 10° 332° (NNW) 1,751 6.6 -16.5°
Maximum altitude 00:56:40 32° 268° (W) 903 4.2 -16.3°
Enters shadow 00:57:47 27° 235° (SW) 1,024 4.3 -16.3°
